"Period start","avg(HW err(1)/warn(2) (#))","avg(Visibility (m))","avg(Weather code (#))","avg(Precip intensity (mm/h))","min(HW err(1)/warn(2) (#))","max(HW err(1)/warn(2) (#))","std(HW err(1)/warn(2) (#))","med(HW err(1)/warn(2) (#))","min(Visibility (m))","max(Visibility (m))","std(Visibility (m))","med(Visibility (m))","min(Weather code (#))","max(Weather code (#))","std(Weather code (#))","med(Weather code (#))","min(Precip intensity (mm/h))","max(Precip intensity (mm/h))","std(Precip intensity (mm/h))","med(Precip intensity (mm/h))"
2014-05-30 00:00:00,2,12818,10,0.00,2,2,0,2,8838,18642,3259,11788,10,10,0,10,0.00,0.00,0.00,0.00
2014-05-30 00:10:00,2,20007,0,0.00,2,2,0,2,14076,29499,4250,18721,0,0,0,0,0.00,0.00,0.00,0.00
2014-05-30 00:20:00,2,26070,0,0.00,2,2,0,2,23804,28245,1602,25955,0,0,0,0,0.00,0.00,0.00,0.00
2014-05-30 00:30:00,2,21539,0,0.00,2,2,0,2,18783,27602,2701,21052,0,0,0,0,0.00,0.00,0.00,0.00
2014-05-30 00:40:00,2,27603,0,0.00,2,2,0,2,20669,36691,4685,27922,0,0,0,0,0.00,0.00,0.00,0.00
2014-05-30 00:50:00,2,21573,0,0.00,2,2,0,2,16551,25575,3349,22102,0,0,0,0,0.00,0.00,0.00,0.00
2014-05-30 01:00:00,2,7307,4,0.00,2,2,0,2,780,21268,7724,2620,0,10,5,0,0.00,0.00,0.00,0.00
2014-05-30 01:10:00,2,933,21,0.00,2,2,0,2,598,1256,208,990,10,34,11,20,0.00,0.00,0.00,0.00
2014-05-30 01:20:00,2,794,34,0.00,2,2,0,2,529,1186,170,772,34,34,0,34,0.00,0.00,0.00,0.00
2014-05-30 01:30:00,2,836,34,0.00,2,2,0,2,488,1893,409,657,34,34,0,34,0.00,0.00,0.00,0.00
2014-05-30 01:40:00,2,870,34,0.00,2,2,0,2,449,1496,344,833,34,34,0,34,0.00,0.00,0.00,0.00
2014-05-30 01:50:00,2,750,34,0.00,2,2,0,2,415,1251,283,663,34,34,0,34,0.00,0.00,0.00,0.00
2014-05-30 02:00:00,2,485,34,0.00,2,2,0,2,334,697,101,479,34,34,0,34,0.00,0.00,0.00,0.00
2014-05-30 02:10:00,2,678,34,0.00,2,2,0,2,353,1264,265,612,34,34,0,34,0.00,0.00,0.00,0.00
2014-05-30 02:20:00,2,566,34,0.00,2,2,0,2,403,882,183,456,34,34,0,34,0.00,0.00,0.00,0.00
2014-05-30 02:30:00,2,579,34,0.00,2,2,0,2,373,805,137,562,34,34,0,34,0.00,0.00,0.00,0.00
2014-05-30 02:40:00,2,462,34,0.00,2,2,0,2,297,727,124,465,33,34,0,34,0.00,0.00,0.00,0.00
2014-05-30 02:50:00,2,460,33,0.00,2,2,0,2,351,567,77,442,33,33,0,33,0.00,0.00,0.00,0.00
2014-05-30 03:00:00,2,368,33,0.00,2,2,0,2,244,441,55,373,30,34,1,33,0.00,0.00,0.00,0.00
2014-05-30 03:10:00,2,540,34,0.00,2,2,0,2,415,745,97,521,34,34,0,34,0.00,0.00,0.00,0.00
2014-05-30 03:20:00,2,578,33,0.00,2,2,0,2,317,1248,257,504,33,33,0,33,0.00,0.00,0.00,0.00
2014-05-30 03:30:00,2,605,33,0.00,2,2,0,2,378,992,208,517,33,33,0,33,0.00,0.00,0.00,0.00
2014-05-30 03:40:00,2,481,32,0.00,2,2,0,2,329,652,95,466,30,33,1,33,0.00,0.00,0.00,0.00
2014-05-30 03:50:00,2,706,32,0.00,2,2,0,2,388,1215,223,682,30,33,1,33,0.00,0.00,0.00,0.00
2014-05-30 04:00:00,2,698,33,0.00,2,2,0,2,438,1075,181,668,33,33,0,33,0.00,0.00,0.00,0.00
2014-05-30 04:10:00,2,825,32,0.00,2,2,0,2,522,1601,367,664,30,33,1,33,0.00,0.00,0.00,0.00
2014-05-30 04:20:00,2,1292,33,0.00,2,2,0,2,511,2270,646,1102,32,33,0,33,0.00,0.00,0.00,0.00
2014-05-30 04:30:00,2,793,28,0.00,2,2,0,2,438,1533,304,764,20,32,5,30,0.00,0.00,0.00,0.00
2014-05-30 04:40:00,2,1366,33,0.00,2,2,0,2,402,3803,1186,830,32,33,0,33,0.00,0.00,0.00,0.00
2014-05-30 04:50:00,2,988,29,0.00,2,2,0,2,534,2164,431,930,20,33,6,33,0.00,0.00,0.00,0.00
2014-05-30 05:00:00,2,982,33,0.00,2,2,0,2,522,1456,345,1002,33,33,0,33,0.00,0.00,0.00,0.00
2014-05-30 05:10:00,2,1397,31,0.00,2,2,0,2,663,3007,712,1082,30,33,1,30,0.00,0.00,0.00,0.00
2014-05-30 05:20:00,2,1028,23,0.00,2,2,0,2,588,1710,366,829,20,30,5,20,0.00,0.00,0.00,0.00
2014-05-30 05:30:00,2,1241,32,0.00,2,2,0,2,807,1813,340,1174,30,33,1,33,0.00,0.00,0.00,0.00
2014-05-30 05:40:00,2,880,27,0.00,2,2,0,2,525,1914,401,755,20,33,6,30,0.00,0.00,0.00,0.00
2014-05-30 05:50:00,2,828,35,0.00,2,2,0,2,369,1970,488,630,33,41,4,33,0.00,0.00,0.00,0.00
2014-05-30 06:00:00,2,1945,32,0.00,2,2,0,2,1141,2793,503,1927,20,41,6,34,0.00,0.00,0.00,0.00
2014-05-30 06:10:00,2,953,27,0.00,2,2,0,2,587,1589,363,852,20,33,6,30,0.00,0.00,0.00,0.00
2014-05-30 06:20:00,2,991,32,0.00,2,2,0,2,509,1586,331,989,30,33,2,32,0.00,0.00,0.00,0.00
2014-05-30 06:30:00,2,1090,32,0.00,2,2,0,2,593,2508,577,815,30,33,1,33,0.00,0.00,0.00,0.00
2014-05-30 06:40:00,2,435,34,0.00,2,2,0,2,289,823,153,401,33,34,0,34,0.00,0.00,0.00,0.00
2014-05-30 06:50:00,2,559,34,0.00,2,2,0,2,333,863,167,535,34,34,0,34,0.00,0.00,0.00,0.00
2014-05-30 07:00:00,2,571,34,0.00,2,2,0,2,342,802,125,554,34,34,0,34,0.00,0.00,0.00,0.00
2014-05-30 07:10:00,2,562,51,0.82,2,2,0,2,414,749,102,577,34,71,17,40,0.00,2.55,1.00,0.25
2014-05-30 07:20:00,2,488,67,0.11,2,2,0,2,424,560,43,490,61,71,5,71,0.05,0.25,0.07,0.10
2014-05-30 07:30:00,2,566,72,0.30,2,2,0,2,466,649,71,588,71,77,2,71,0.00,0.80,0.26,0.22
2014-05-30 07:40:00,2,792,72,0.11,2,2,0,2,554,1277,219,716,71,77,2,71,0.05,0.25,0.06,0.10
2014-05-30 07:50:00,2,1995,77,0.09,2,2,0,2,983,4612,921,1831,77,77,0,77,0.00,0.50,0.15,0.03
2014-05-30 08:00:00,2,5920,39,0.00,2,2,0,2,3535,8241,1167,6054,20,77,25,20,0.00,0.00,0.00,0.00
2014-05-30 08:10:00,2,2035,41,0.01,2,2,0,2,663,3198,872,2260,41,41,0,41,0.00,0.05,0.02,0.00
2014-05-30 08:20:00,2,593,75,0.04,2,2,0,2,489,810,89,577,71,77,3,77,0.00,0.10,0.03,0.05
2014-05-30 08:30:00,2,1606,76,0.03,2,2,0,2,592,3785,953,1567,71,77,2,77,0.00,0.10,0.03,0.00
2014-05-30 08:40:00,2,11039,51,0.00,2,2,0,2,5182,15161,3306,10976,20,77,27,59,0.00,0.00,0.00,0.00
2014-05-30 08:50:00,2,23877,34,0.00,2,2,0,2,11713,35282,9094,26374,20,61,16,30,0.00,0.00,0.00,0.00
2014-05-30 09:00:00,2,25365,20,0.00,2,2,0,2,20392,32083,3765,24246,20,20,0,20,0.00,0.00,0.00,0.00
2014-05-30 09:10:00,2,13914,20,0.00,2,2,0,2,3645,20151,5106,13624,20,20,0,20,0.00,0.00,0.00,0.00
2014-05-30 09:20:00,2,3416,24,0.02,2,2,0,2,2092,5423,870,3284,20,41,8,20,0.00,0.15,0.05,0.00
2014-05-30 09:30:00,2,9797,38,0.15,2,2,0,2,4191,18330,3955,9852,20,52,15,46,0.00,0.65,0.20,0.08
2014-05-30 09:40:00,2,15338,8,0.00,2,2,0,2,5289,21712,4868,17151,0,20,10,0,0.00,0.00,0.00,0.00
2014-05-30 09:50:00,2,4046,9,0.00,2,2,0,2,2854,6028,918,3811,0,10,3,10,0.00,0.00,0.00,0.00
2014-05-30 10:00:00,2,9243,10,0.00,2,2,0,2,5185,13865,3030,9014,10,10,0,10,0.00,0.00,0.00,0.00
2014-05-30 10:10:00,2,11292,7,0.00,2,2,0,2,7551,14408,1884,11800,0,10,5,10,0.00,0.00,0.00,0.00
2014-05-30 10:20:00,2,10901,44,0.10,2,2,0,2,8737,14233,1730,10729,0,77,20,41,0.00,0.65,0.18,0.05
2014-05-30 10:30:00,2,13762,57,0.24,2,2,0,2,8687,16790,2505,14198,51,61,5,61,0.05,0.70,0.20,0.15
2014-05-30 10:40:00,2,22290,23,0.36,2,2,0,2,11207,37322,7607,22682,0,61,29,0,0.00,1.85,0.63,0.00
2014-05-30 10:50:00,2,8121,61,1.87,2,2,0,2,5587,11161,1978,8297,61,61,0,61,0.45,2.65,0.69,2.05
2014-05-30 11:00:00,2,12636,68,0.46,2,2,0,2,3491,22149,6569,9472,61,71,5,71,0.00,1.40,0.50,0.23
2014-05-30 11:10:00,2,16341,57,0.07,2,2,0,2,10477,23120,4228,16244,0,71,28,71,0.00,0.25,0.09,0.03
2014-05-30 11:20:00,2,26966,0,0.00,2,2,0,2,22144,30347,2409,26980,0,0,0,0,0.00,0.00,0.00,0.00
2014-05-30 11:30:00,2,23472,0,0.00,2,2,0,2,19965,29898,2628,22818,0,0,0,0,0.00,0.00,0.00,0.00
2014-05-30 11:40:00,2,28620,0,0.00,2,2,0,2,21049,36532,4314,28310,0,0,0,0,0.00,0.00,0.00,0.00
2014-05-30 11:50:00,2,10876,60,0.57,2,2,0,2,6901,14473,2500,11414,40,77,14,61,0.05,2.50,0.76,0.22
2014-05-30 12:00:00,2,16236,11,0.01,2,2,0,2,8482,20866,3458,17424,0,61,23,0,0.00,0.10,0.03,0.00
2014-05-30 12:10:00,2,12707,0,0.00,2,2,0,2,7134,20805,4507,11901,0,0,0,0,0.00,0.00,0.00,0.00
2014-05-30 12:20:00,2,28528,0,0.00,2,2,0,2,17053,34478,4431,29732,0,0,0,0,0.00,0.00,0.00,0.00
2014-05-30 12:30:00,2,15612,0,0.00,2,2,0,2,7471,25368,6274,15747,0,0,0,0,0.00,0.00,0.00,0.00
2014-05-30 12:40:00,2,23017,0,0.00,2,2,0,2,15036,33167,5670,21794,0,0,0,0,0.00,0.00,0.00,0.00
2014-05-30 12:50:00,2,23931,0,0.00,2,2,0,2,18986,32143,3941,23826,0,0,0,0,0.00,0.00,0.00,0.00
2014-05-30 13:00:00,2,13430,26,0.23,2,2,0,2,4123,27094,8636,11988,0,71,28,20,0.00,0.80,0.31,0.00
2014-05-30 13:10:00,2,6877,72,0.90,2,2,0,2,4803,8872,1038,6955,71,74,1,71,0.20,1.40,0.37,0.93
2014-05-30 13:20:00,2,12692,36,0.08,2,2,0,2,7492,16491,2589,12754,0,71,36,36,0.00,0.60,0.18,0.00
2014-05-30 13:30:00,2,7980,61,0.04,2,2,0,2,4983,10197,1397,8088,40,77,17,71,0.00,0.10,0.04,0.05
2014-05-30 13:40:00,2,5470,23,0.02,2,2,0,2,1788,11843,3068,4194,10,77,27,10,0.00,0.10,0.03,0.00
2014-05-30 13:50:00,2,706,30,0.12,2,2,0,2,461,1138,239,648,10,71,27,10,0.00,0.75,0.24,0.00
2014-05-30 14:00:00,2,927,71,0.10,2,2,0,2,483,1613,407,779,41,77,10,74,0.00,0.20,0.06,0.08
2014-05-30 14:10:00,2,3003,31,0.01,2,2,0,2,848,11090,3235,1453,20,41,8,34,0.00,0.05,0.02,0.00
2014-05-30 14:20:00,2,3678,42,1.30,2,2,0,2,1547,6183,1757,3170,20,71,21,41,0.00,3.40,1.41,0.55
2014-05-30 14:30:00,2,6386,71,0.49,2,2,0,2,2842,10903,2577,5628,71,71,0,71,0.00,2.10,0.63,0.28
2014-05-30 14:40:00,2,9571,71,0.15,2,2,0,2,6648,13663,2271,9336,71,71,0,71,0.00,0.35,0.12,0.10
2014-05-30 14:50:00,2,11854,66,0.04,2,2,0,2,8154,16318,2524,11308,20,71,15,71,0.00,0.10,0.04,0.03
2014-05-30 15:00:00,2,26103,20,0.00,2,2,0,2,16371,36879,6002,27327,20,20,0,20,0.00,0.00,0.00,0.00
2014-05-30 15:10:00,2,41224,12,0.00,2,2,0,2,33033,45697,4417,42412,0,20,10,20,0.00,0.00,0.00,0.00
2014-05-30 15:20:00,2,49707,0,0.00,2,2,0,2,47152,50000,852,50000,0,0,0,0,0.00,0.00,0.00,0.00
2014-05-30 15:30:00,2,48343,0,0.00,2,2,0,2,43542,50000,2308,49687,0,0,0,0,0.00,0.00,0.00,0.00
2014-05-30 15:40:00,2,47427,0,0.00,2,2,0,2,37803,50000,3985,49406,0,0,0,0,0.00,0.00,0.00,0.00
2014-05-30 15:50:00,2,48348,0,0.00,2,2,0,2,42538,50000,2417,49772,0,0,0,0,0.00,0.00,0.00,0.00
2014-05-30 16:00:00,2,18054,0,0.00,2,2,0,2,6825,40047,12263,10252,0,0,0,0,0.00,0.00,0.00,0.00
2014-05-30 16:10:00,2,13068,0,0.00,2,2,0,2,9503,18544,2380,13050,0,0,0,0,0.00,0.00,0.00,0.00
2014-05-30 16:20:00,2,41719,0,0.00,2,2,0,2,31197,50000,6186,40787,0,0,0,0,0.00,0.00,0.00,0.00
2014-05-30 16:30:00,2,21667,2,0.00,2,2,0,2,2043,50000,19561,12738,0,10,4,0,0.00,0.00,0.00,0.00
2014-05-30 16:40:00,2,943,14,0.00,2,2,0,2,667,1664,287,828,10,34,9,10,0.00,0.00,0.00,0.00
2014-05-30 16:50:00,2,16860,28,0.00,2,2,0,2,1665,41236,14342,13317,20,34,7,34,0.00,0.00,0.00,0.00
2014-05-30 17:00:00,2,49821,20,0.00,2,2,0,2,48211,50000,537,50000,20,20,0,20,0.00,0.00,0.00,0.00
2014-05-30 17:10:00,2,50000,20,0.00,2,2,0,2,50000,50000,0,50000,20,20,0,20,0.00,0.00,0.00,0.00
2014-05-30 17:20:00,2,47432,20,0.00,2,2,0,2,42825,50000,2433,48183,20,20,0,20,0.00,0.00,0.00,0.00
2014-05-30 17:30:00,2,50000,20,0.00,2,2,0,2,50000,50000,0,50000,20,20,0,20,0.00,0.00,0.00,0.00
2014-05-30 17:40:00,2,35218,20,0.00,2,2,0,2,7384,50000,16358,44281,20,20,0,20,0.00,0.00,0.00,0.00
2014-05-30 17:50:00,2,49342,12,0.00,2,2,0,2,44775,50000,1542,50000,0,20,10,20,0.00,0.00,0.00,0.00
2014-05-30 18:00:00,2,27275,0,0.00,2,2,0,2,4784,50000,18896,30344,0,0,0,0,0.00,0.00,0.00,0.00
2014-05-30 18:10:00,2,26848,0,0.00,2,2,0,2,9000,45458,10792,28146,0,0,0,0,0.00,0.00,0.00,0.00
2014-05-30 18:20:00,2,18755,0,0.00,2,2,0,2,4825,36082,11535,20923,0,0,0,0,0.00,0.00,0.00,0.00
2014-05-30 18:30:00,2,33999,0,0.00,2,2,0,2,6979,50000,16091,37750,0,0,0,0,0.00,0.00,0.00,0.00
2014-05-30 18:40:00,2,25712,0,0.00,2,2,0,2,14479,48243,10067,22550,0,0,0,0,0.00,0.00,0.00,0.00
2014-05-30 18:50:00,2,13685,54,0.01,2,2,0,2,11390,17228,1700,13436,0,77,24,56,0.00,0.05,0.02,0.00
2014-05-30 19:00:00,2,20292,75,0.00,2,2,0,2,15283,33439,5097,18723,71,77,3,77,0.00,0.00,0.00,0.00
2014-05-30 19:10:00,2,35004,15,0.00,2,2,0,2,28491,41061,4199,36324,0,77,31,0,0.00,0.00,0.00,0.00
2014-05-30 19:20:00,2,32092,0,0.00,2,2,0,2,24105,39922,4630,31804,0,0,0,0,0.00,0.00,0.00,0.00
2014-05-30 19:30:00,2,42352,0,0.00,2,2,0,2,31773,50000,5730,41736,0,0,0,0,0.00,0.00,0.00,0.00
2014-05-30 19:40:00,2,41840,4,0.03,2,2,0,2,8211,50000,12240,47350,0,40,12,0,0.00,0.25,0.08,0.00
2014-05-30 19:50:00,2,3997,68,0.86,2,2,0,2,2810,5138,707,4052,40,71,9,71,0.30,1.80,0.40,0.82
2014-05-30 20:00:00,2,9950,73,0.06,2,2,0,2,4997,15636,2832,9796,71,77,3,71,0.00,0.40,0.12,0.00
2014-05-30 20:10:00,2,37045,24,0.00,2,2,0,2,24236,45673,7458,38207,0,77,31,0,0.00,0.00,0.00,0.00
2014-05-30 20:20:00,2,46903,0,0.00,2,2,0,2,40834,50000,3337,48304,0,0,0,0,0.00,0.00,0.00,0.00
2014-05-30 20:30:00,2,19699,43,0.49,2,2,0,2,2699,50000,20324,6302,0,71,35,71,0.00,1.90,0.58,0.38
2014-05-30 20:40:00,2,20157,64,0.15,2,2,0,2,6284,44352,12650,16372,0,71,21,71,0.00,1.10,0.32,0.00
2014-05-30 20:50:00,2,45728,0,0.00,2,2,0,2,37107,50000,4959,48737,0,0,0,0,0.00,0.00,0.00,0.00
2014-05-30 21:00:00,2,49927,0,0.00,2,2,0,2,49301,50000,209,50000,0,0,0,0,0.00,0.00,0.00,0.00
2014-05-30 21:10:00,2,49532,0,0.00,2,2,0,2,46102,50000,1167,50000,0,0,0,0,0.00,0.00,0.00,0.00
2014-05-30 21:20:00,2,48294,0,0.00,2,2,0,2,43911,50000,2019,48698,0,0,0,0,0.00,0.00,0.00,0.00
2014-05-30 21:30:00,2,49139,0,0.00,2,2,0,2,45653,50000,1450,50000,0,0,0,0,0.00,0.00,0.00,0.00
2014-05-30 21:40:00,2,48468,0,0.00,2,2,0,2,44533,50000,1924,49290,0,0,0,0,0.00,0.00,0.00,0.00
2014-05-30 21:50:00,2,48893,0,0.00,2,2,0,2,43505,50000,1951,50000,0,0,0,0,0.00,0.00,0.00,0.00
2014-05-30 22:00:00,2,49711,0,0.00,2,2,0,2,47106,50000,868,50000,0,0,0,0,0.00,0.00,0.00,0.00
2014-05-30 22:10:00,2,49090,0,0.00,2,2,0,2,43235,50000,2005,50000,0,0,0,0,0.00,0.00,0.00,0.00
2014-05-30 22:20:00,2,47054,0,0.00,2,2,0,2,38904,50000,3236,47584,0,0,0,0,0.00,0.00,0.00,0.00
2014-05-30 22:30:00,2,50000,0,0.00,2,2,0,2,50000,50000,0,50000,0,0,0,0,0.00,0.00,0.00,0.00
2014-05-30 22:40:00,2,49313,0,0.00,2,2,0,2,46187,50000,1319,50000,0,0,0,0,0.00,0.00,0.00,0.00
2014-05-30 22:50:00,2,49608,0,0.00,2,2,0,2,47175,50000,874,50000,0,0,0,0,0.00,0.00,0.00,0.00
2014-05-30 23:00:00,2,49552,0,0.00,2,2,0,2,46829,50000,988,50000,0,0,0,0,0.00,0.00,0.00,0.00
2014-05-30 23:10:00,2,48601,0,0.00,2,2,0,2,43069,50000,2165,50000,0,0,0,0,0.00,0.00,0.00,0.00
2014-05-30 23:20:00,2,48184,0,0.00,2,2,0,2,41485,50000,2549,49342,0,0,0,0,0.00,0.00,0.00,0.00
2014-05-30 23:30:00,2,49529,0,0.00,2,2,0,2,47543,50000,832,50000,0,0,0,0,0.00,0.00,0.00,0.00
2014-05-30 23:40:00,2,49816,0,0.00,2,2,0,2,48193,50000,541,50000,0,0,0,0,0.00,0.00,0.00,0.00
2014-05-30 23:50:00,2,49032,0,0.00,2,2,0,2,41607,50000,2505,50000,0,0,0,0,0.00,0.00,0.00,0.00
